Probability
0 0 0 0 0 0 0 0 0 0 0 0 0 0 0 0 0 0 0 0 0 0 0 0 0 0 0 0 0 0 0 0 0 0 0 0 0 0
0 0 0 0 0 0 0 0 0 0 0 0 0 0 0 0 0 0 0 0 0 0 0 0 0 0 0 0 0 0 0 0 0 0 0 0 0 0
0 0 0 0 0 0 0 0 0 0 0 0 0 0 0 0 0 0 0 0 0 0 0 0 0 0 0 0 0 0 0 0 0 0 0 0 0 0
0 0 0 0 0 0 0 0 0 0 0 0 0 0 0 0 0 0 0 0 0 0 0 0 0 0 0 0 0 0 0 0 0 0 0 0 0 0
0 0 0 0 0 0 0 0 0 0 0 0 0 0 0 0 0 0 0 0 0 0 0 0 0 0 0 0 0 0 0 0 0 0 0 0 0 0
0 0 0 0 0 0 0 0 0 0 0 0 0 0 0 0 0 0 0 0 0 0 0 0 0 0 0 0 0 0 0 0 0 0 0 0 0 0
0 0 0 0 0 0 0 0 0 0 0 0 0 0 0 0 0 0 0 0 0 0 0 0 0 0 0 0 0 0 0 0 0 0 0 0 0 0
0 0 0 0 0 0 0 0 0 0 0 0 0 0 0 0 0 0 0 0 0 0 0 0 0 0 0 0 0 0 0 0 0 0 0 0 0 0
0 0 0 0 0 0 0 0 0 0 0 0 0 0 0 0 0 0 0 0 0 0 0 0 0 0 0 0 0 0 0 0 0 0 0 0 0 0
0 0 0 0 0 0 0 0 0 0 0 0 0 0 0 0 0 0 0 0 0 0 0 0 0 0 0 0 0 0 0 0 0 0 0 0 0 0
0 0 0 0 0 0 0 0 0 0 0 0 0 0 0 0 0 0 0 0 0 0 0 0 0 0 0 0 0 0 0 0 0 0 0 0 0 0
0 0 0 0 0 0 0 0 0 0 0 0 0 0 0 0 0 0 0 0 0 0 0 0 0 0 0 0 0 0 0 0 0 0 0 0 0 0
0 0 0 0 0 0 0 0 0 0 0 0 0 0 0 0 0 0 0 0 0 0 0 0 0 0 0 0 0 0 0 0 0 0 0 0 0 0
0 0 0 0 0 0 0 0 0 0 0 0 0 0 0 0 0 0 0 0 0 0 0 0 0 0 0 0 0 0 0 0 0 0 0 0 0 0
0 0 0 0 0 0 0 0 0 0 0 0 0 0 0 0 0 0 0 0 0 0 0 0 0 0 0 0 0 0 0 0 0 0 0 0 0 0
0 0 0 0 0 0 0 0 0 0 0 0 0 0 0 0 0 0 0 0 0 0 0 0 0 0 0 0 0 0 0 0 0 0 0 0 0 0
0 0 0 0 0 0 0 0 0 0 0 0 0 0 0 0 0 0 0 0 0 0 0 0 0 0 0 0 0 0 0 0 0 0 0 0 0 0
0 0 0 0 0 0 0 0 0 0 0 0 0 0 0 0 0 0 0 0 0 0 0 0 0 0 0 0 0 0 0 0 0 0 0 0 0 0
0 0 0 0 0 0 0 0 0 0 0 0 0 0 0 0 0 0 0 0 0 0 0 0 0 0 0 0 0 0 0 0 0 0 0 0 0 0
0 0 0 0 0 0 0 0 0 0 0 0 0 0 0 0 0 0 0 0 0 0 0 0 0 0 0 0 0 0 0 0 0 0 0 0 0 0
0 0 0 0 0 0 0 0 0 0 0 0 0 0 0 0 0 0 0 0 0 0 0 0 0 0 0 0 0 0 0 0 0 0 0 0 0 0
0 0 0 0 0 0 0 0 0 0 0 0 0 0 0 0 0 0 0 0 0 0 0 0 0 0 0 0 0 0 0 0 0 0 0 0 0 0
0 0 0 0 0 0 0 0 0 0 0 0 0 0 0 0 0 0 0 0 0 0 0 0 0 0 0 0 0 0 0 0 0 0 0 0 0 0
Wind_Speed
1 1 1 1 1 1 1 2 3 5 5 4 3 5 7 6 11 8 7 18 26 27 28 28 28 28 29 29 29 29 29 29 28 29 29 29 30 30
1 1 1 1 1 2 2 3 3 5 8 4 5 7 8 9 16 10 9 25 26 27 28 28 29 29 29 30 30 30 29 29 29 29 29 29 29 30
1 1 2 1 1 2 2 3 4 5 10 8 5 6 7 9 10 8 10 9 11 24 27 28 29 29 29 30 30 30 30 30 30 29 29 29 29 30
2 2 3 2 2 3 3 4 4 5 8 13 7 6 8 9 10 10 12 12 9 21 27 27 28 29 30 30 30 31 30 30 30 29 29 29 29 30
2 3 3 2 3 3 4 4 4 7 6 9 10 7 7 9 10 11 12 9 12 16 22 24 27 29 30 31 30 30 30 30 30 29 29 29 29 29
3 3 3 3 4 4 4 5 6 6 6 8 10 9 9 8 8 9 10 6 9 12 17 20 24 28 29 30 31 31 30 30 29 29 28 28 28 29
4 4 3 6 9 8 7 5 5 5 6 8 10 11 10 8 8 8 11 9 9 10 10 11 11 11 14 21 26 28 29 29 29 29 29 29 29 30
5 4 4 6 10 13 15 15 14 10 9 9 10 12 12 10 8 9 11 14 14 5 7 12 11 12 11 9 21 29 29 30 29 29 29 29 29 29
5 4 5 6 10 4 10 14 13 19 21 14 13 12 12 10 10 12 12 14 16 10 9 15 12 13 11 14 26 29 31 31 30 29 28 27 27 28
5 5 4 5 6 9 6 5 7 10 15 12 10 11 11 10 12 14 14 13 13 10 8 13 13 13 13 9 21 29 30 28 26 26 28 29 29 29
5 5 7 6 13 17 9 8 10 9 15 20 22 22 26 27 21 11 8 10 14 12 6 8 11 13 13 12 14 22 23 25 28 30 30 29 29 27
4 6 11 13 16 18 10 9 11 10 10 11 13 17 14 15 21 11 7 10 13 11 4 4 8 11 11 6 5 8 13 22 27 28 29 29 29 18
4 4 6 17 19 21 19 9 13 15 9 8 9 10 9 8 8 7 7 9 12 13 9 7 10 9 10 13 11 9 10 11 12 16 22 27 28 22
5 4 7 19 21 22 15 15 20 17 6 7 9 9 9 9 9 9 10 10 12 16 15 13 12 12 13 16 15 11 9 10 10 12 11 18 22 26
6 14 18 21 20 12 14 18 15 6 7 8 9 9 8 8 9 9 10 10 13 14 13 13 13 13 12 14 15 15 16 13 11 9 9 11 12 12
7 11 18 18 14 12 12 9 6 6 9 8 10 10 10 9 9 9 10 10 11 12 10 11 12 14 13 14 14 16 14 12 10 11 12 13 12 11
9 5 4 5 4 5 5 5 6 7 8 8 10 11 11 11 11 9 9 10 11 13 14 10 8 10 14 14 15 15 14 13 11 11 12 15 14 11
11 4 5 4 5 7 8 9 8 8 8 9 10 10 11 11 12 10 9 10 11 12 13 12 12 12 10 10 16 15 12 12 12 12 12 14 16 12
6 4 4 5 6 6 7 8 9 9 9 9 10 10 10 10 11 11 11 11 11 12 12 12 11 12 14 15 8 11 11 13 13 12 11 12 15 14
4 5 5 5 6 7 8 9 9 10 9 9 10 10 10 11 11 11 11 12 13 13 13 11 9 10 12 14 15 14 12 12 12 14 13 12 12 16
5 5 5 6 7 7 8 9 9 10 11 10 10 11 10 11 11 11 12 17 16 12 13 12 11 17 12 10 12 12 10 11 15 14 15 13 13 11
6 6 6 7 7 8 8 9 10 10 11 10 11 11 11 11 12 14 13 13 13 12 13 12 11 11 9 11 13 14 14 14 14 19 18 16 11 9
6 6 7 7 7 8 8 9 11 11 10 11 11 11 11 12 12 12 13 13 12 12 12 12 11 9 10 10 12 13 15 16 13 13 12 15 19 19
Wind_Direction
148 61 345 304 329 320 311 289 277 291 294 279 295 335 330 312 307 307 293 302 303 301 302 302 300 299 298 297 295 294 292 289 286 283 281 278 276 274
138 142 284 298 323 320 302 288 273 278 286 283 300 298 304 309 306 306 298 302 302 300 298 298 298 297 297 296 295 294 292 289 286 284 281 279 277 275
296 254 268 283 290 291 292 284 275 273 283 288 279 289 296 296 297 289 289 285 287 295 297 297 297 297 298 296 295 293 291 289 287 285 283 281 279 277
285 288 283 289 292 286 278 274 278 278 285 295 297 295 293 293 293 291 298 294 288 295 298 300 300 300 298 296 294 292 291 289 288 286 284 282 280 279
282 270 270 280 283 280 284 285 284 289 287 298 302 297 293 292 293 292 289 288 292 298 303 301 299 297 295 296 296 296 295 293 291 288 286 283 280 277
306 288 271 263 263 267 278 271 276 282 287 291 295 296 292 288 288 295 297 284 291 299 296 293 293 296 296 297 296 295 293 291 289 286 284 282 279 276
311 297 287 290 290 289 286 276 285 285 290 292 294 296 296 298 296 294 299 299 289 284 282 285 290 286 288 290 292 290 289 289 289 288 286 283 280 277
306 300 299 296 296 305 311 309 306 306 302 294 294 295 297 293 291 295 299 300 297 271 285 294 289 286 285 279 288 293 294 295 294 292 289 285 282 278
289 287 293 297 309 301 297 302 304 303 301 296 294 292 292 291 291 291 289 288 290 294 295 292 290 287 285 289 296 297 297 296 293 290 288 286 283 280
290 290 293 294 297 301 290 298 286 291 292 292 283 283 289 288 283 287 290 290 286 283 272 284 291 291 293 287 293 293 293 293 294 297 296 293 289 285
318 327 321 302 304 312 315 299 293 289 299 299 299 299 300 301 302 300 295 295 295 293 278 275 288 297 294 287 283 289 293 297 297 295 294 293 292 291
314 310 313 311 312 316 311 299 300 297 292 295 298 298 295 293 301 297 293 297 296 296 278 273 294 308 299 267 262 285 290 291 293 293 294 294 294 291
295 295 297 312 313 312 311 301 297 304 300 299 297 295 293 290 289 283 281 285 289 284 287 294 289 287 282 292 293 285 280 284 289 290 292 292 291 289
303 293 297 312 313 313 313 307 310 316 307 300 297 297 297 296 294 290 285 277 269 273 280 282 283 286 287 287 293 294 286 283 283 284 282 286 287 286
307 313 315 315 315 312 311 316 322 316 303 300 299 297 291 288 292 293 289 283 277 273 272 270 271 276 275 280 286 290 295 294 280 276 280 282 283 284
304 306 314 313 314 320 321 319 311 300 307 302 301 299 299 297 297 297 299 302 297 292 275 258 258 266 274 276 279 284 284 282 284 285 287 287 283 276
310 302 300 305 315 316 308 304 306 310 310 303 301 301 301 300 299 300 297 298 294 297 301 297 268 259 261 269 277 277 279 280 280 286 291 290 285 275
320 308 306 311 312 315 316 314 311 307 305 303 300 297 297 298 299 299 296 295 295 295 295 298 301 298 286 256 240 261 274 282 288 288 284 287 290 286
329 312 306 306 305 306 305 305 304 302 301 299 296 296 296 296 296 298 299 298 295 294 293 294 296 299 306 309 279 231 267 288 292 290 285 284 288 289
314 306 303 304 304 304 304 303 302 302 301 299 297 296 296 296 297 297 298 297 298 297 297 296 294 299 302 302 301 297 280 280 294 297 296 290 282 280
313 308 303 301 300 300 300 299 298 299 299 300 298 297 297 298 297 296 297 299 300 298 299 301 298 303 299 293 293 298 296 283 286 294 300 299 298 294
312 307 303 299 298 298 298 299 299 299 300 298 297 297 296 296 296 297 298 298 297 296 299 301 303 306 305 305 305 305 307 308 303 300 294 289 297 301
309 306 302 300 297 296 296 297 297 296 297 296 296 296 297 297 296 295 294 294 297 306 312 314 315 314 311 307 307 309 309 314 315 316 309 307 310 306